Weather History for Elefsis, Greece

Change the Weather History Date:

Friday, August 1, 2014

  Actual Average Record
Temperature  
Mean Temperature 86 °F -  
Max Temperature 94 °F 90 °F 100 °F (2005)
Min Temperature 77 °F 72 °F 69 °F (1999)
Cooling Degree Days 20    
Growing Degree Days 36 (Base 50)    
Moisture  
Dew Point 54 °F    
Average Humidity 34    
Maximum Humidity 51    
Minimum Humidity 12    
Precipitation  
Precipitation 0.00 in - - ()
Sea Level Pressure  
Sea Level Pressure 29.62 in    
Wind  
Wind Speed 6 mph ()    
Max Wind Speed 16 mph    
Max Gust Speed -    
Visibility 6.2 miles    
Events      
Averages and records for this station are not official NWS values.
T = Trace of Precipitation, MM = Missing Value Source: Averaged Metar Reports

Daily Weather History Graph

Daily Weather History Graph

Search for Another Location

Airport:

Trip Planner

Search our weather history database for the weather conditions in past years. The results will help you decide how hot, cold, wet, or windy it might be!

Date:

Astronomy

Aug. 01, 2014 Rise Set
Actual Time 6:28 AM EEST 8:35 PM EEST
Civil Twilight 5:59 AM EEST 9:04 PM EEST
Nautical Twilight 5:23 AM EEST 9:40 PM EEST
Astronomical Twilight 4:44 AM EEST 10:18 PM EEST
Moon 11:28 AM EEST (8/1) 11:15 PM EEST (8/1)
Length of Visible Light 15h 05m
Length of Day
14h 06m
Waxing Crescent, 25% of the Moon is Illuminated
Aug 1
Waxing Crescent
Aug 4
First Quarter
Aug 10
Full
Aug 17
Last Quarter
Aug 25
New

Hourly Weather History & Observations

Time (EEST) Temp. Heat Index Dew Point Humidity Pressure Visibility Wind Dir Wind Speed Gust Speed Precip Events Conditions
12:00 AM 82 °F - 60 °F 36% 29.62 in 6 mi Calm Calm - -  
12:20 AM 82.4 °F 82.5 °F 59.0 °F 45% 29.62 in - Calm Calm - N/A   Clear
12:50 AM 82.4 °F 82.5 °F 59.0 °F 45% 29.62 in - Calm Calm - N/A   Clear
1:20 AM 82.4 °F 82.5 °F 59.0 °F 45% 29.62 in - Calm Calm - N/A   Clear
1:50 AM 82.4 °F 82.5 °F 59.0 °F 45% 29.62 in - Calm Calm - N/A   Clear
2:50 AM 82.4 °F 82.5 °F 59.0 °F 45% 29.62 in - Calm Calm - N/A   Clear
3:00 AM 82 °F - 59 °F 35% 29.63 in 6 mi Calm Calm - -  
3:50 AM 78.8 °F - 59.0 °F 51% 29.62 in - WNW 11.5 mph - N/A   Clear
4:20 AM 78.8 °F - 59.0 °F 51% 29.62 in - WNW 11.5 mph - N/A   Clear
4:50 AM 78.8 °F - 59.0 °F 51% 29.62 in - WNW 11.5 mph - N/A   Clear
5:20 AM 78.8 °F - 59.0 °F 51% 29.62 in - WNW 11.5 mph - N/A   Clear
5:50 AM 78.8 °F - 57.2 °F 47% 29.62 in - South 6.9 mph - N/A   Clear
6:00 AM 79 °F - 56 °F 35% 29.63 in 6 mi WNW 6.9 mph - -  
6:20 AM 78.8 °F - 57.2 °F 47% 29.62 in - West 5.8 mph - N/A   Clear
6:50 AM 77.0 °F - 57.2 °F 50% 29.62 in - West 4.6 mph - N/A   Clear
7:20 AM 77.0 °F - 57.2 °F 50% 29.62 in - West 4.6 mph - N/A   Clear
7:50 AM 80.6 °F 80.5 °F 55.4 °F 42% 29.62 in - Calm Calm - N/A   Clear
8:20 AM 84.2 °F 82.8 °F 53.6 °F 35% 29.62 in - NW 6.9 mph - N/A   Clear
8:50 AM 84.2 °F 82.8 °F 53.6 °F 35% 29.62 in - NW 6.9 mph - N/A   Clear
9:00 AM 85 °F - 54 °F 24% 29.64 in 6 mi NW 6.9 mph - -  
9:20 AM 86.0 °F 84.2 °F 53.6 °F 33% 29.62 in - NNW 9.2 mph - N/A   Clear
9:50 AM 87.8 °F 86.1 °F 55.4 °F 33% 29.62 in 6.2 mi NNW 9.2 mph - N/A   Partly Cloudy
10:20 AM 87.8 °F 86.1 °F 55.4 °F 33% 29.62 in 6.2 mi North 9.2 mph - N/A   Partly Cloudy
10:50 AM 87.8 °F 86.1 °F 55.4 °F 33% 29.62 in 6.2 mi North 8.1 mph - N/A   Partly Cloudy
11:20 AM 89.6 °F 87.7 °F 55.4 °F 31% 29.62 in 6.2 mi North 10.4 mph - N/A   Partly Cloudy
11:50 AM 89.6 °F 87.3 °F 53.6 °F 29% 29.62 in 6.2 mi North 6.9 mph - N/A   Partly Cloudy
12:00 PM 90 °F - 54 °F 19% 29.64 in 6 mi North 6.9 mph - -   Scattered Clouds
12:20 PM 91.4 °F 89.1 °F 53.6 °F 28% 29.62 in 6.2 mi Variable 4.6 mph - N/A   Partly Cloudy
12:50 PM 91.4 °F 89.1 °F 53.6 °F 28% 29.62 in 6.2 mi SSW 13.8 mph - N/A   Scattered Clouds
1:20 PM 91.4 °F - 51.8 °F 26% 29.62 in 6.2 mi SSW 13.8 mph - N/A   Scattered Clouds
1:50 PM 93.2 °F - 51.8 °F 24% 29.62 in 6.2 mi SW 12.7 mph - N/A   Scattered Clouds
2:20 PM 93.2 °F - 51.8 °F 24% 29.62 in 6.2 mi SSW 16.1 mph - N/A   Scattered Clouds
2:50 PM 95.0 °F - 46.4 °F 19% 29.59 in 6.2 mi SW 15.0 mph - N/A   Scattered Clouds
3:00 PM 94 °F - 47 °F 12% 29.61 in 6 mi SW 15.0 mph - -   Partly Cloudy
3:20 PM 95.0 °F - 46.4 °F 19% 29.59 in 6.2 mi SW 15.0 mph - N/A   Scattered Clouds
3:50 PM 95.0 °F - 48.2 °F 20% 29.59 in 6.2 mi West 9.2 mph - N/A   Scattered Clouds
4:20 PM 95.0 °F - 48.2 °F 20% 29.59 in 6.2 mi West 9.2 mph - N/A   Scattered Clouds
4:50 PM 95.0 °F - 48.2 °F 20% 29.59 in 6.2 mi West 10.4 mph - N/A   Scattered Clouds
5:20 PM 91.4 °F - 48.2 °F 23% 29.59 in 6.2 mi WNW 11.5 mph - N/A   Scattered Clouds
5:50 PM 89.6 °F - 50.0 °F 26% 29.56 in 6.2 mi WNW 13.8 mph - N/A   Scattered Clouds
6:00 PM 90 °F - 51 °F 17% 29.57 in 6 mi WNW 13.8 mph - -   Partly Cloudy
6:20 PM 89.6 °F - 50.0 °F 26% 29.56 in 6.2 mi WNW 15.0 mph - N/A   Scattered Clouds
6:50 PM 87.8 °F 86.5 °F 57.2 °F 35% 29.56 in 6.2 mi West 13.8 mph - N/A   Scattered Clouds
7:20 PM 87.8 °F 86.5 °F 57.2 °F 35% 29.56 in 6.2 mi West 11.5 mph - N/A   Scattered Clouds
7:50 PM 89.6 °F - 46.4 °F 22% 29.62 in 6.2 mi West 8.1 mph - N/A   Scattered Clouds
8:20 PM 87.8 °F - 48.2 °F 25% 29.62 in 6.2 mi NNW 5.8 mph - N/A   Scattered Clouds
8:50 PM 86.0 °F - 51.8 °F 31% 29.62 in 6.2 mi North 9.2 mph - N/A   Scattered Clouds
9:00 PM 85 °F - 51 °F 21% 29.64 in 6 mi North 9.2 mph - -   Partly Cloudy
9:20 PM 84.2 °F - 51.8 °F 33% 29.62 in 6.2 mi North 9.2 mph - N/A   Scattered Clouds
9:50 PM 84.2 °F - 51.8 °F 33% 29.65 in 6.2 mi North 8.1 mph - N/A   Scattered Clouds
10:20 PM 82.4 °F 82.0 °F 57.2 °F 42% 29.65 in 6.2 mi North 10.4 mph - N/A   Scattered Clouds
10:50 PM 80.6 °F 80.8 °F 57.2 °F 45% 29.65 in 6.2 mi North 11.5 mph - N/A   Partly Cloudy
11:20 PM 80.6 °F 80.8 °F 57.2 °F 45% 29.65 in 6.2 mi NNW 12.7 mph - N/A   Partly Cloudy
11:50 PM 80.6 °F 80.8 °F 57.2 °F 45% 29.65 in 6.2 mi NW 12.7 mph - N/A   Partly Cloudy